Wind_Speed
63 62 57 55 52 51 50 50 46 48 46 43 43 42 41 40 38 37 33 31 29 26 26 23 23 22 21 21 21 20 19 20 23 20 18 16 16 18 20 17 15 17 16 15 13
65 64 62 58 56 53 51 49 48 47 44 45 45 44 43 42 39 38 35 33 30 28 27 25 22 22 22 21 21 22 21 20 22 23 19 18 18 18 20 19 19 19 18 17 17
68 66 64 62 59 57 53 52 49 47 46 47 45 44 44 43 41 36 34 32 30 27 26 26 23 22 22 22 24 24 23 22 24 24 20 21 18 21 19 21 23 21 21 21 20
72 68 66 64 62 60 57 54 52 50 48 46 46 45 45 43 41 37 35 33 31 28 27 26 24 24 24 23 26 25 23 24 23 26 24 23 20 24 21 22 24 24 23 23 22
73 72 70 67 65 64 62 59 56 54 51 50 48 47 47 43 42 38 36 35 34 33 32 30 28 28 27 26 27 27 26 27 23 25 26 25 25 24 23 25 25 26 25 26 26
74 74 74 71 69 67 65 63 61 57 55 53 52 51 48 48 46 44 40 39 39 36 33 32 29 30 31 30 29 30 27 29 27 24 27 27 29 26 25 31 28 27 28 27 27
76 76 75 73 73 70 69 67 64 61 58 55 54 53 52 49 47 45 44 42 39 38 36 34 35 32 33 34 33 33 31 29 28 28 28 27 31 27 28 30 33 30 29 30 29
78 77 77 75 75 73 71 69 67 65 62 60 57 55 53 53 52 49 46 46 43 40 39 39 38 38 36 35 37 36 32 30 31 31 28 26 32 29 30 30 33 35 34 33 34
78 80 79 77 76 76 75 71 70 68 65 63 60 58 55 53 52 50 47 45 41 40 39 38 38 37 36 39 39 36 31 33 33 32 31 28 34 30 31 32 34 36 38 37 36
87 82 84 81 78 77 75 73 74 71 68 66 63 60 59 59 57 53 51 48 46 44 41 40 38 37 42 45 40 37 35 34 35 33 32 31 34 32 33 34 37 38 38 38 39
94 91 85 81 83 76 76 77 76 75 71 71 65 63 62 61 59 56 56 55 49 48 44 41 39 44 48 42 37 39 39 37 40 35 31 34 34 34 32 37 40 39 38 41 43
98 94 93 89 82 84 80 74 76 79 77 74 70 66 64 64 61 57 56 55 51 48 46 47 44 50 47 46 43 43 43 43 40 37 32 35 35 38 34 35 42 41 42 42 42
102 101 99 96 93 83 84 87 85 79 80 75 72 67 67 67 63 60 58 55 55 54 54 53 50 52 52 52 51 51 50 51 43 41 35 34 28 34 40 37 41 45 45 43 43
108 102 105 104 95 92 89 85 89 87 81 75 71 67 68 65 63 61 58 59 57 55 57 54 54 57 58 54 57 53 58 55 52 44 39 38 27 30 40 42 42 48 45 46 47
109 110 105 106 102 97 95 94 91 83 90 77 72 66 67 68 64 62 62 63 60 63 63 54 58 59 56 58 62 59 63 60 55 43 39 36 38 28 44 46 47 46 47 49 48
114 113 112 109 104 105 99 99 98 99 97 90 78 73 74 72 65 68 71 67 64 65 61 59 59 59 57 62 66 67 66 66 54 47 34 39 40 24 46 54 53 51 50 49 49
120 119 114 111 107 108 110 106 105 112 101 92 91 84 80 82 76 75 73 69 69 70 65 66 66 68 67 67 70 72 71 64 56 49 40 47 39 29 44 55 55 56 54 53 53
125 125 121 117 112 112 111 111 114 110 107 101 97 97 91 90 88 80 78 77 71 71 71 71 71 71 72 72 75 75 72 65 63 57 43 41 36 43 44 52 57 57 59 60 60
127 127 125 120 118 116 116 119 116 108 110 112 107 105 101 94 92 92 91 86 80 76 77 77 76 74 73 74 78 77 71 72 70 57 48 43 40 42 46 51 56 62 63 63 62
127 126 125 125 124 124 125 122 114 111 112 114 116 112 105 100 99 94 90 83 84 82 81 82 81 78 78 81 79 74 74 70 68 62 56 45 45 46 49 51 56 61 63 64 63
126 125 121 125 128 131 133 122 117 113 114 116 114 117 110 105 101 97 92 83 81 84 89 88 84 77 79 77 75 78 73 71 71 69 65 57 52 49 51 52 58 61 63 63 62
133 124 123 126 130 131 131 128 122 118 118 119 116 116 114 111 106 102 90 86 84 85 85 86 90 86 84 83 81 78 74 73 71 68 70 66 46 49 54 56 59 63 64 64 65
126 131 126 131 132 128 128 130 129 121 121 125 121 120 118 113 112 102 97 94 93 89 84 85 86 87 86 84 82 79 74 75 77 77 73 74 48 54 60 61 65 66 65 63 62
121 125 136 134 133 129 128 130 131 126 126 125 125 125 124 123 113 103 99 97 98 95 93 96 96 89 83 82 84 82 80 80 82 81 72 72 63 59 62 65 69 72 69 67 67
117 118 129 135 133 132 128 128 128 127 128 130 130 127 125 127 120 108 99 100 100 98 101 102 99 96 89 90 91 88 86 87 86 76 87 68 79 57 64 73 74 73 71 68 66
113 113 122 134 135 136 135 133 130 128 128 129 131 129 130 130 124 114 109 109 105 103 105 105 102 103 99 97 97 98 95 89 88 86 85 74 78 71 76 76 74 76 75 72 73
111 113 116 120 133 139 139 133 132 130 130 130 128 127 132 132 132 125 121 113 113 111 107 108 106 104 102 103 107 109 90 96 94 93 94 91 76 82 80 80 79 79 77 72 72
Wind_Direction
220 221 221 219 221 220 221 223 224 227 226 228 232 236 239 243 249 255 257 259 263 263 266 266 273 272 269 269 270 268 271 278 281 275 275 271 267 265 263 265 255 251 248 253 252
219 222 223 223 221 220 219 223 224 226 229 233 234 235 237 240 247 251 254 258 262 261 260 262 268 271 273 273 270 270 268 268 270 275 271 268 266 261 261 267 259 255 255 249 251
219 221 223 224 223 223 222 224 225 227 230 232 232 234 235 241 249 254 256 257 261 262 260 260 261 268 270 272 271 268 268 265 263 270 271 273 263 265 259 258 260 260 256 256 255
224 223 223 225 225 225 225 225 225 231 232 231 230 231 233 239 246 247 252 253 257 259 258 259 254 263 267 270 271 267 267 267 266 268 271 269 262 263 260 256 256 261 262 263 262
226 225 225 226 227 226 226 225 227 228 231 229 231 232 234 238 242 247 249 252 254 259 258 257 259 261 265 267 272 271 269 265 261 266 269 267 267 261 263 260 257 262 259 262 266
229 227 227 227 227 229 228 228 227 228 232 230 231 235 238 236 240 246 243 247 255 260 258 256 255 259 262 265 270 273 269 266 266 265 262 265 265 266 263 266 263 259 260 260 262
228 230 230 229 229 229 230 230 230 229 229 229 232 234 238 239 242 244 248 250 256 256 255 260 259 257 257 261 264 269 273 268 266 263 262 262 265 270 263 264 267 265 263 259 259
226 228 232 231 231 231 231 231 231 232 232 231 232 234 236 238 241 243 246 252 256 256 257 259 258 261 258 259 263 268 273 270 264 265 270 266 265 265 264 262 260 264 264 264 265
224 228 229 230 232 232 232 233 234 232 232 233 233 234 238 239 240 244 248 252 256 258 258 259 255 256 256 258 261 265 269 266 266 265 265 266 268 267 266 265 260 261 261 263 264
219 218 227 229 230 232 232 233 236 235 233 234 235 234 235 236 240 245 249 251 256 258 256 256 255 255 256 258 264 262 261 264 263 263 263 263 266 269 267 265 263 259 262 261 262
221 221 216 227 229 230 233 232 236 235 235 234 235 235 236 238 240 243 246 247 252 254 253 253 254 253 255 259 259 260 261 266 261 260 262 262 264 262 269 270 265 263 262 259 262
225 224 222 219 222 229 229 232 235 235 235 236 235 236 236 239 241 243 245 249 252 253 252 255 253 252 254 258 257 260 261 262 262 257 252 259 263 270 264 262 268 267 262 260 261
227 226 225 224 224 218 230 231 231 231 233 235 233 236 236 240 243 245 245 247 249 250 250 250 249 253 254 254 255 258 259 259 257 259 260 256 257 259 263 263 261 263 263 264 263
225 227 228 227 224 227 223 225 233 232 227 229 234 233 236 238 239 242 245 245 245 247 248 248 248 248 251 253 255 254 258 258 257 255 257 259 242 261 261 263 263 262 265 266 266
231 228 229 230 228 228 228 230 223 226 231 227 231 229 233 237 234 238 242 241 241 245 247 245 247 249 251 254 256 252 255 255 257 257 260 260 251 239 265 266 263 263 265 265 268
227 231 230 229 229 230 231 233 232 230 224 219 224 232 230 234 232 233 239 239 240 243 245 243 243 247 249 250 253 254 255 257 259 260 258 259 255 246 257 260 264 265 264 267 270
227 229 230 229 229 228 232 232 233 232 230 226 223 222 223 226 227 230 234 238 239 240 242 243 241 241 244 248 252 253 253 258 263 262 254 254 260 244 246 260 267 273 274 272 269
228 229 229 231 230 230 228 232 233 236 235 231 229 229 229 229 225 224 228 232 238 239 239 241 242 244 242 245 250 254 257 259 258 260 263 263 263 260 259 258 262 265 267 268 268
228 230 231 231 230 232 233 230 234 236 238 236 233 232 232 232 234 232 230 229 233 239 242 241 242 241 244 247 250 252 258 259 266 271 269 269 270 267 264 264 268 267 270 271 270
230 229 231 232 232 231 234 235 233 234 236 240 237 235 233 234 236 237 238 238 239 241 241 242 242 244 246 248 253 258 258 262 266 268 266 262 262 266 268 272 269 269 269 269 270
229 230 229 232 233 233 233 235 234 235 236 238 240 240 235 236 236 238 238 239 241 242 245 246 247 246 248 252 254 258 262 265 267 271 269 264 265 268 269 264 264 264 267 269 272
228 229 227 232 234 234 235 235 237 237 236 239 239 241 240 236 237 238 238 239 239 241 245 247 248 249 250 253 256 260 264 266 267 265 265 270 270 267 266 262 260 262 264 266 271
229 228 227 229 233 234 235 235 236 235 237 241 240 240 243 239 238 238 238 239 240 241 241 243 247 249 250 253 257 260 259 259 261 263 269 273 273 265 264 264 265 264 266 265 268
230 229 228 230 232 233 234 236 236 236 237 239 242 243 244 244 240 237 238 238 241 243 243 245 246 248 249 250 250 253 255 257 261 268 274 273 272 269 266 266 266 264 267 268 268
231 229 228 229 231 233 233 235 238 238 237 238 241 243 246 246 245 240 239 240 239 239 241 244 246 247 247 248 252 252 254 259 264 267 267 272 273 273 271 269 268 271 272 272 272
232 231 229 230 230 231 234 235 236 237 238 238 241 243 245 247 249 247 240 237 237 238 240 243 244 246 247 250 253 255 257 262 265 266 269 268 268 273 269 272 273 273 272 272 274
233 232 230 230 230 231 232 234 235 236 237 238 241 242 245 247 248 248 247 243 240 241 242 245 246 247 246 248 252 253 261 261 261 263 266 269 273 269 272 270 272 274 276 276 276
Height
10733 10739 10745 10750 10756 10762 10767 10772 10777 10781 10785 10788 10791 10794 10797 10799 10801 10803 10804 10806 10806 10807 10807 10808 10809 10809 10808 10807 10808 10808 10808 10806 10805 10806 10806 10806 10806 10805 10804 10805 10807 10806 10807 10807 10808
10720 10728 10735 10742 10747 10752 10758 10762 10767 10772 10776 10781 10784 10787 10790 10793 10795 10797 10799 10800 10801 10803 10803 10804 10804 10804 10804 10804 10804 10804 10805 10805 10803 10802 10804 10804 10803 10803 10802 10803 10803 10803 10804 10805 10804
10710 10717 10724 10731 10738 10744 10749 10755 10759 10763 10767 10772 10776 10779 10782 10786 10788 10790 10792 10794 10795 10797 10798 10799 10799 10800 10800 10800 10800 10800 10800 10801 10800 10799 10801 10800 10801 10799 10800 10800 10799 10800 10800 10800 10801
10702 10707 10713 10719 10726 10734 10739 10745 10750 10755 10760 10764 10768 10771 10775 10778 10781 10784 10786 10788 10789 10791 10793 10794 10794 10796 10795 10796 10796 10796 10796 10796 10797 10795 10797 10796 10797 10795 10797 10797 10795 10795 10796 10797 10797
10689 10696 10703 10710 10716 10722 10729 10735 10741 10746 10752 10756 10761 10764 10768 10771 10774 10776 10779 10782 10784 10785 10787 10788 10790 10790 10789 10791 10791 10791 10791 10790 10793 10792 10792 10792 10791 10792 10793 10792 10793 10792 10792 10792 10792
10678 10683 10691 10697 10704 10711 10717 10724 10729 10735 10742 10747 10752 10755 10760 10764 10767 10769 10772 10775 10777 10779 10780 10783 10784 10784 10784 10785 10785 10785 10786 10786 10788 10788 10787 10787 10785 10788 10790 10787 10788 10789 10788 10788 10788
10664 10672 10679 10685 10692 10698 10706 10712 10719 10726 10731 10736 10741 10746 10751 10756 10759 10762 10764 10767 10770 10772 10774 10776 10776 10777 10777 10778 10779 10778 10780 10781 10782 10781 10781 10782 10780 10784 10784 10784 10782 10784 10784 10784 10784
10646 10655 10664 10671 10678 10686 10693 10700 10707 10714 10720 10725 10731 10736 10740 10746 10750 10753 10757 10759 10762 10764 10767 10768 10769 10770 10770 10771 10770 10773 10775 10774 10774 10775 10777 10778 10773 10777 10777 10779 10778 10777 10778 10779 10779
10629 10639 10648 10656 10664 10671 10679 10688 10695 10701 10707 10714 10719 10726 10731 10735 10739 10744 10747 10750 10754 10756 10759 10760 10761 10762 10762 10761 10763 10767 10769 10767 10767 10769 10771 10772 10767 10771 10770 10771 10772 10771 10771 10772 10773
10610 10615 10631 10640 10647 10656 10664 10673 10680 10688 10694 10701 10707 10714 10720 10719 10727 10733 10737 10741 10744 10747 10749 10752 10754 10755 10751 10751 10757 10761 10760 10760 10760 10762 10765 10765 10762 10764 10764 10764 10762 10763 10766 10766 10766
10591 10600 10605 10622 10631 10640 10649 10657 10664 10670 10680 10686 10695 10702 10706 10709 10716 10722 10726 10730 10733 10736 10738 10744 10747 10742 10738 10746 10749 10749 10752 10752 10751 10757 10759 10758 10758 10758 10759 10756 10754 10756 10758 10758 10758
10579 10588 10595 10598 10610 10625 10632 10639 10644 10654 10662 10670 10680 10690 10694 10697 10702 10709 10713 10718 10721 10725 10730 10732 10735 10728 10733 10735 10739 10739 10742 10741 10743 10748 10753 10751 10753 10750 10752 10749 10745 10747 10747 10748 10751
10562 10571 10578 10584 10596 10599 10615 10617 10624 10631 10646 10655 10665 10675 10680 10684 10691 10697 10702 10706 10708 10713 10715 10718 10720 10719 10721 10722 10726 10727 10731 10729 10736 10738 10745 10745 10749 10745 10739 10741 10738 10735 10736 10738 10740
10543 10552 10559 10570 10583 10590 10589 10588 10608 10618 10626 10646 10652 10661 10664 10672 10679 10686 10688 10693 10695 10698 10697 10707 10707 10704 10705 10713 10711 10717 10713 10719 10722 10729 10735 10737 10744 10739 10731 10731 10729 10725 10729 10728 10729
10521 10533 10541 10555 10569 10572 10578 10581 10584 10596 10604 10632 10632 10649 10655 10655 10672 10667 10669 10674 10683 10680 10681 10697 10692 10694 10699 10697 10695 10704 10699 10704 10710 10720 10727 10731 10731 10736 10722 10719 10715 10719 10719 10717 10718
10499 10509 10519 10533 10550 10556 10562 10564 10570 10571 10581 10602 10619 10627 10636 10641 10652 10652 10647 10658 10667 10665 10672 10678 10681 10679 10684 10680 10679 10683 10688 10689 10699 10709 10723 10717 10719 10734 10715 10705 10704 10707 10709 10710 10712
10478 10487 10499 10513 10530 10534 10537 10543 10541 10538 10577 10591 10601 10601 10603 10612 10624 10630 10634 10640 10645 10647 10659 10659 10663 10665 10667 10666 10664 10666 10669 10678 10689 10697 10707 10703 10712 10722 10708 10695 10695 10693 10697 10698 10699
10456 10466 10479 10494 10506 10507 10515 10517 10515 10538 10560 10575 10583 10586 10590 10595 10601 10609 10614 10621 10629 10635 10639 10639 10646 10650 10653 10653 10649 10651 10657 10668 10671 10680 10694 10699 10708 10703 10703 10696 10687 10684 10680 10683 10685
10434 10443 10460 10473 10481 10482 10485 10487 10505 10533 10534 10546 10559 10565 10578 10583 10588 10593 10597 10605 10613 10618 10618 10622 10627 10633 10637 10638 10634 10644 10653 10650 10654 10673 10683 10690 10694 10694 10688 10684 10680 10673 10672 10671 10670
10410 10423 10443 10443 10453 10454 10448 10468 10497 10508 10513 10515 10532 10549 10562 10570 10571 10578 10587 10606 10609 10605 10599 10602 10608 10619 10621 10621 10628 10634 10635 10639 10643 10654 10664 10681 10680 10679 10675 10673 10669 10662 10658 10656 10657
10385 10402 10422 10416 10420 10422 10424 10453 10478 10490 10494 10497 10510 10517 10543 10553 10556 10566 10578 10590 10590 10585 10579 10587 10595 10607 10604 10614 10616 10614 10624 10628 10627 10636 10645 10658 10669 10668 10664 10658 10652 10649 10647 10645 10645
10356 10377 10395 10385 10387 10404 10415 10439 10462 10469 10468 10473 10490 10496 10513 10529 10537 10549 10569 10571 10570 10565 10571 10570 10571 10588 10595 10598 10602 10605 10614 10614 10612 10616 10618 10635 10663 10652 10648 10642 10638 10635 10635 10637 10634
10328 10351 10362 10357 10359 10385 10405 10417 10433 10445 10449 10451 10467 10475 10485 10500 10512 10534 10549 10555 10550 10554 10559 10552 10556 10565 10576 10586 10592 10594 10596 10591 10589 10593 10614 10617 10652 10636 10627 10626 10623 10621 10623 10624 10624
10299 10320 10332 10333 10346 10365 10377 10389 10400 10424 10429 10433 10442 10448 10460 10472 10492 10518 10532 10535 10532 10542 10539 10532 10534 10552 10566 10566 10563 10570 10573 10575 10571 10581 10600 10604 10615 10615 10614 10610 10605 10600 10606 10610 10609
10269 10297 10309 10312 10328 10344 10354 10367 10381 10397 10405 10412 10415 10425 10439 10448 10464 10495 10511 10513 10515 10518 10516 10511 10522 10529 10546 10541 10540 10550 10558 10558 10562 10583 10561 10601 10583 10604 10589 10586 10586 10589 10590 10594 10594
10246 10268 10281 10294 10306 10312 10324 10344 10357 10372 10379 10391 10399 10412 10417 10420 10437 10466 10476 10482 10488 10497 10496 10494 10507 10506 10524 10527 10523 10522 10533 10551 10551 10557 10550 10569 10574 10570 10565 10566 10568 10567 10571 10576 10576
10225 10236 10247 10265 10271 10279 10300 10323 10337 10342 10349 10363 10378 10391 10390 10404 10415 10429 10436 10455 10472 10476 10481 10479 10485 10489 10503 10508 10494 10490 10545 10524 10526 10532 10533 10539 10568 10544 10549 10547 10550 10549 10551 10555 10554